This is the latest recevied weather packets stored in our database for station/object K4GSL. If no packets are shown the sender has not sent any weather packets the latest 10 day(s).
| Time | Temp. | Humidity | Pressure | Rain* | Wind** | Luminosity | Snow |
|---|---|---|---|---|---|---|---|
| 1777606550 | 17.22° C | 74% | 1018.2 hPa | 0 mm | - | 0 W/m² | - |
| 1777606245 | 17.78° C | 72% | 1018.4 hPa | 0 mm | - | 0 W/m² | - |
| 1777605941 | 18.89° C | 70% | 1018.5 hPa | 0 mm | - | 0 W/m² | - |
| 1777605637 | 19.44° C | 68% | 1018.4 hPa | 0 mm | - | 0 W/m² | - |
| 1777605336 | 20° C | 64% | 1018.3 hPa | 0 mm | - | 2 W/m² | - |
| 1777605033 | 20.56° C | 62% | 1018.1 hPa | 0 mm | - | 2 W/m² | - |
| 1777604729 | 21.11° C | 60% | 1018.1 hPa | 0 mm | - | 4 W/m² | - |
| 1777604426 | 21.11° C | 59% | 1018.1 hPa | 0 mm | - | 5 W/m² | - |
| 1777604126 | 21.67° C | 58% | 1018.2 hPa | 0 mm | - | 8 W/m² | - |
| 1777603823 | 21.67° C | 57% | 1017.9 hPa | 0 mm | - | 12 W/m² | - |
| 1777603519 | 22.22° C | 56% | 1018.2 hPa | 0 mm | - | 16 W/m² | - |
| 1777603215 | 22.78° C | 53% | 1018.1 hPa | 0 mm | - | 20 W/m² | - |
| 1777602910 | 22.78° C | 52% | 1018 hPa | 0 mm | - | 28 W/m² | - |
| 1777602606 | 23.33° C | 50% | 1017.9 hPa | 0 mm | - | 27 W/m² | - |
| 1777602301 | 22.78° C | 48% | 1017.8 hPa | 0 mm | - | 28 W/m² | - |
| 1777601997 | 22.78° C | 49% | 1018.1 hPa | 0 mm | - | 22 W/m² | - |
| 1777601693 | 22.78° C | 48% | 1018 hPa | 0 mm | - | 23 W/m² | - |
| 1777601388 | 23.33° C | 48% | 1018.2 hPa | 0 mm | - | 26 W/m² | - |
| 1777601084 | 23.33° C | 47% | 1017.9 hPa | 0 mm | - | 30 W/m² | - |
| 1777600782 | 23.33° C | 47% | 1018.2 hPa | 0 mm | - | 30 W/m² | - |
| 1777600478 | 23.89° C | 46% | 1018.1 hPa | 0 mm | - | 32 W/m² | - |
| 1777600173 | 23.89° C | 46% | 1018.1 hPa | 0 mm | - | 35 W/m² | - |
| 1777599869 | 24.44° C | 46% | 1018 hPa | 0 mm | - | 44 W/m² | - |
| 1777599565 | 24.44° C | 45% | 1018.1 hPa | 0 mm | - | 49 W/m² | - |
| 1777599262 | 25° C | 45% | 1018.2 hPa | 0 mm | - | 61 W/m² | - |
* Rain latest hour (hover to see other rain measurements)
** Current wind speed in m/s (hover to see current wind gust speed)